Orbital elements:
    C/2008 C1 (Chen-Gao)
Epoch 2008 Apr. 4.0 TT = JDT 2454560.5
T 2008 Apr. 16.84977 TT                                 MPC
q   1.2623592            (2000.0)            P               Q
z  -0.0000344      Peri.  180.92705     -0.61862242     -0.36370228
 +/-0.0000606      Node   307.78187     +0.72640742     +0.07301737
e   1.0000434      Incl.   61.78490     +0.29939699     -0.92864908
Residuals in seconds of arc
080130 C42 (0.4-  2.7+)   080209 106  0.4+  0.2-    080308 J76  0.1+  0.1-
080131 C42 (2.3+ 10.0+)   080209 106  0.0   0.1+    080308 J76  0.3-  0.6-
080201 C42 (3.8+  5.4+)   080209 232  0.1+  0.1-    080309 J79  0.3-  0.2-
080202 C42 (3.3+  7.1+)   080209 106  0.0   0.1-    080309 J79  0.8-  0.9-
080202 C42 (2.3-  5.1+)   080209 106  0.1-  0.4+    080309 J79  0.5-  0.4-
080202 C42 (1.2+  9.5-)   080209 106  0.4+  0.1-    080310 367  0.2+  0.5+
080202 C42 (6.0+  4.1-)   080209 232  0.1-  0.6+    080310 367  0.0   0.6-
080202 J87  0.2+  0.2-    080209 106  0.3+  0.2+    080310 367  0.6+  0.6+
080202 J87  0.2-  0.2-    080209 232  0.5+  0.2-    080310 367  0.7+  0.7+
080202 J87  0.7-  0.2-    080209 213  0.0   0.1+    080310 900  0.8-  0.4-
080202 J87  0.1+  0.0     080209 213  0.5+  0.3+    080310 900 (2.6+  1.4-)
080202 J87  0.5-  0.2-    080209 213  0.5+  0.4+    080310 A97  0.9-  0.8-
080202 B30  0.6-  0.7-    080210 H06  0.1+  0.3-    080310 A97  0.6+  0.2-
080202 B30  1.3+  0.8+    080210 H06  0.3-  0.2+    080310 A97  0.6+  0.5+
080202 204  0.3-  0.3+    080210 D88  0.1+  0.7+    080310 A97  1.0+  0.5+
080202 204  0.1-  0.3+    080210 D88  0.3+  1.4+    080310 B30  1.5+  1.9+
080202 204  0.0   0.3+    080210 D88  0.5-  1.1+    080311 235  0.2+  0.1+
080202 114  0.7+  1.5+    080210 349  0.2+  0.3+    080311 J51  0.2+  0.3-
080202 B03  0.1+  0.1-    080210 349  0.3+  0.1+    080311 J51  0.2+  0.2-
080202 B03  0.1+  0.6+    080210 048  1.0-  0.1-    080311 J51  0.1+  0.2-
080202 B03  0.3-  0.1+    080210 048  1.6-  0.1-    080312 J47 (2.9-  3.2+)
080202 B03  0.4-  0.2+    080210 048  1.5-  0.2+    080312 J47 (4.1-  3.6+)
080202 A21  0.6-  0.0     080210 048 (2.3-  0.1+)   080312 J47 (3.6-  3.4+)
080202 A21  0.0   0.0     080210 048  1.2-  0.4-    080313 C42 (0.6+  9.1+)
080202 A21  0.2-  0.2-    080210 235  0.0   0.3+    080313 C42 (5.0+  5.3+)
080202 A21  0.0   0.1-    080210 945  0.6+  1.3-    080313 C42 (6.0+  7.3+)
080203 H55  0.2-  0.2-    080210 945  0.4-  0.5-    080313 C42 (5.5+  8.7+)
080203 H55  0.3-  0.3-    080210 945  0.1+  1.6+    080313 J96  0.8-  0.2+
080203 H55  0.0   0.2+    080210 945  0.8-  1.6-    080313 J96  0.6-  0.0
080203 B30  0.3+  0.2+    080210 J38  1.2+  0.7+    080313 J96  0.7-  0.6+
080203 B30  0.5-  0.2+    080210 J38  1.0+  0.0     080314 442 (0.2-  2.2-)
080203 B30  1.3-  0.7-    080211 A21  0.0   0.2+    080315 900  0.2+  0.0
080203 B30  0.8+  0.2-    080211 A21  0.7-  1.0-    080315 900  0.6-  1.7-
080203 B30  0.9+  0.1-    080211 A21  1.8-  0.6+    080315 J39  0.1-  1.0+
080203 H45  0.0   1.8+    080211 585  2.0-  0.7-    080315 J39  0.6-  0.0
080203 H45  0.2-  0.5-    080211 585  0.3-  0.2-    080316 939  0.1+  1.6+
080203 H45  0.1-  0.3-    080211 585  0.1-  0.1-    080316 939  0.4-  0.7+
080203 H45  0.2-  0.2-    080211 585  0.2-  0.7-    080316 939  0.9-  0.2-
080203 H45  0.2-  0.1-    080211 585  0.3-  0.5-    080316 A77  0.8-  0.5+
080203 H45  0.0   0.3+    080211 585  0.6+  0.4-    080316 A77  1.8-  0.0
080203 H45  0.6-  0.2-    080211 585  0.4+  0.2-    080316 A77  0.2+  1.5+
080203 H45  0.1-  0.7-    080211 J51  0.6+  0.2+    080316 A06  1.0-  0.5-
080203 H45  0.1+  0.5-    080211 J51  0.2-  0.0     080316 A06  0.2+  0.5-
080203 H45  1.6-  0.2+    080211 046  0.0   0.7-    080316 A06  0.4-  0.5-
080203 448  0.1-  0.0     080211 046  0.5+  0.7-    080317 900  0.5-  0.0
080203 448  0.2-  0.4-    080211 J51  0.1+  0.2+    080317 900  0.3-  0.2-
080203 448  0.0   0.2-    080211 046  0.3-  0.2-    080317 213  0.6-  0.0
080203 448 (3.0+  0.4-)   080211 046  0.1-  0.0     080317 213  0.5-  0.5-
080203 448  1.8-  0.2-    080211 046  0.0   0.4-    080317 213  0.4-  0.4-
080203 704  0.4+  1.7+    080211 046  0.4-  0.2-    080318 J76  0.3-  0.1+
080203 704  0.3-  1.1+    080211 046  0.6-  0.4-    080318 J76  0.1-  0.0
080203 H06  0.1-  0.3+    080211 945 (3.9-  1.3+)   080318 J76  0.3-  0.2-
080203 H06  0.4-  0.3+    080211 945  0.1-  0.2-    080319 A77  0.1-  0.2+
080203 704 (0.3-  2.4+)   080211 945  0.5+  0.7+    080319 A77  0.3-  0.2-
080203 704  0.3+  1.1+    080212 235  0.1-  0.1-    080319 A77  0.7-  0.2-
080203 701 (2.1-  2.8+)   080212 204  0.3-  0.2-    080320 585  0.8-  0.4+
080203 701 (4.3-  1.4-)   080212 204  0.3-  0.2-    080320 585 (3.9-  0.3+)
080203 704  0.7+  1.1+    080213 355  0.2-  0.4+    080320 585  0.4-  0.2-
080203 673  0.4-  0.7-    080213 355  0.3+  0.6+    080320 585  0.7+  1.8-
080203 701 (2.6+  0.9+)   080213 355  0.1+  0.9+    080320 585  1.6-  0.2-
080203 701  1.3+  0.2-    080213 355  0.6+  0.5+    080320 585  1.2+  0.9-
080203 673  0.4-  0.8-    080213 J34  0.6-  0.8-    080320 442  0.4-  0.4+
080203 701 (3.5-  0.3-)   080213 J34  0.1+  0.1+    080321 900 (0.2+  2.3+)
080203 H06  1.1+  0.4+    080215 J46  0.2+  0.4+    080321 900  0.0   0.3-
080203 673  0.6-  0.7-    080215 J46  0.2-  0.2-    080321 213  0.1+  1.1+
080203 H06  0.3-  0.4-    080215 213  0.1-  0.8-    080321 213  0.3+  1.7+
080203 701  0.4-  1.9+    080215 213  0.1-  1.0-    080321 213  0.3-  0.5-
080203 673  0.6-  0.2-    080215 213  0.3-  0.9-    080322 349  0.1-  0.4-
080203 D70  0.2-  0.1+    080215 J47  0.5+  0.4-    080322 349  0.4+  0.1+
080203 372  0.9-  0.1-    080215 J47  0.4-  0.2-    080322 C42 (4.5+  6.0+)
080203 D70  0.1-  0.4+    080215 J47  0.1+  0.1+    080322 C42 (3.9+  0.3+)
080203 300  0.1-  0.3-    080215 510  0.1-  0.1-    080322 C42 (2.3-  1.3-)
080203 300  2.0+  0.1+    080215 510  0.4-  0.0     080322 C42 (2.1-  3.0-)
080203 372  0.5+  0.6+    080216 B58  0.4-  0.1+    080322 J79  0.5+  0.5+
080203 300  1.2-  1.9-    080216 B58  0.4-  0.1+    080322 J79  1.0+  0.2-
080203 300  0.0   0.3-    080216 B58  0.6+  0.5+    080322 J79  0.0   0.6-
080203 D70  0.2+  0.2+    080216 B58  0.2-  0.7+    080323 C42  0.5-  0.6-
080203 048  0.8+  0.5+    080216 B58  0.2-  0.2-    080323 939  0.3+  0.8+
080203 048  0.6+  0.2+    080216 B58  0.0   0.0     080323 939  0.1+  0.2+
080203 048  0.1-  0.2-    080216 B58  0.1+  0.6-    080323 939  0.2-  0.1+
080203 048  0.2-  0.7-    080216 A97  0.3+  0.9+    080323 J79  0.5-  0.7-
080203 048  0.3-  0.6-    080216 B58  0.0   0.1-    080323 J79  0.0   0.0
080203 A97  0.2-  0.9+    080216 B58  0.5-  0.7-    080323 J79  0.5+  0.1+
080203 A97  0.0   0.3-    080216 B58  0.3-  0.2-    080324 750  0.2+  0.3+
080203 A97  0.8+  0.9+    080216 A97  0.8+  0.8+    080324 750  0.0   0.3-
080203 557  0.0   0.0     080216 B58  0.3-  0.5-    080324 585 (2.8-  1.0+)
080203 557  0.0   0.0     080216 B58  0.6-  0.1+    080324 585 (2.2-  0.2+)
080203 557  0.0   0.1-    080216 B58  0.7-  0.0     080324 585  0.6+  1.4-
080203 557  0.1+  0.0     080216 B58  0.1+  0.0     080324 585  0.8+  1.2-
080203 557  0.0   0.1-    080216 A97  0.0   1.8-    080324 585  0.6-  0.4+
080203 557  0.0   0.0     080217 510  0.3+  0.1-    080324 585 (0.3-  2.0-)
080203 A97  0.6+  0.6+    080217 510  0.4+  0.5+    080324 585 (0.5-  3.2+)
080203 349  0.6-  0.5+    080217 D88  0.0   0.5-    080324 J79  0.9-  0.1+
080203 349  1.0-  0.8+    080217 D88  1.3+  0.1-    080324 J79  0.2-  0.3+
080203 349  0.6-  0.9+    080217 349  0.0   0.1+    080324 J79  0.8+  0.8+
080203 B42  1.0+  1.0-    080217 349  0.1-  0.0     080325 235  0.0   0.2-
080203 B42  0.9+  0.7-    080217 349  0.1+  0.1-    080325 A77  1.5+  0.1-
080203 B42  1.0+  0.6-    080217 349  0.2+  0.3-    080325 A77  0.0   0.9+
080203 B42  1.0+  0.4-    080217 510  0.2-  0.6+    080325 A77 (0.7+  2.7+)
080203 B42  0.3+  0.3-    080217 510  0.4-  0.1-    080325 B57  0.8-  0.0
080203 945 (3.1+  5.1-)   080219 B58  0.1-  0.2+    080326 629  0.7-  0.2+
080203 945 (3.0+  2.9-)   080219 B58  0.4-  0.3-    080326 629  0.5-  0.0
080203 945  0.9+  1.5+    080219 B58  0.2-  0.2+    080326 629  0.6-  0.7-
080203 945  0.4+  1.5-    080219 B58  0.1-  0.4-    080326 J47  0.8-  0.4-
080203 585  1.2-  0.9+    080219 B58  0.2-  0.0     080326 J47  1.1+  0.7+
080203 585  0.1-  0.7+    080221 300  0.1-  0.9-    080326 J47  0.2-  0.2-
080203 585  0.1-  0.9+    080221 300  0.0   0.8-    080327 J47  0.2+  0.6+
080203 585  0.4-  0.1-    080221 300  0.6+  0.3-    080327 J47  0.6-  0.5-
080203 585 (4.4-  0.0 )   080221 300  0.8+  0.2-    080327 J47  0.1+  1.1+
080204 372  1.3-  0.1+    080222 939  0.4-  0.6+    080327 J51  1.1+  0.4+
080204 372  0.8-  0.5+    080222 939  0.2-  0.5-    080327 J51  0.8+  0.4+
080204 372  0.8-  0.1+    080222 939  0.1+  0.1-    080327 J51  0.5+  0.5+
080204 C42 (2.1+  0.8-)   080223 A97  0.3+  0.8+    080328 750  0.9+  0.8+
080204 C42 (3.3+  0.8-)   080223 A97  0.5+  1.1+    080328 750  0.3+  0.2+
080204 C42 (2.7+  0.5+)   080223 A97  0.8-  1.6+    080328 C42 (2.0+  3.5-)
080204 C42 (4.5+  0.2+)   080223 A97 (2.1-  0.3+)   080328 C42 (0.5+  2.5+)
080204 C42 (4.5+  1.5-)   080224 D88  0.1-  0.2+    080328 C42 (4.0+  2.9-)
080204 C42 (4.5+  0.1+)   080224 D88  0.6+  1.1+    080328 C42 (4.2+  1.5-)
080204 C42 (3.0+  0.1-)   080224 D88  0.9+  0.2+    080328 147  1.5-  0.4+
080204 A77  0.3-  0.3-    080224 C42 (5.2-  3.5-)   080328 147  0.7-  0.5+
080204 A77  0.2+  0.5-    080224 C42 (1.3+  3.1-)   080328 147  0.7-  0.3+
080204 A77  0.5+  0.9+    080224 C42 (2.8+  3.7-)   080328 147  0.4+  0.6+
080204 A77  0.0   0.1-    080224 233  0.5+  0.5-    080329 204  0.5-  0.0
080204 945  1.3+  0.0     080224 A41  0.6+  0.5+    080329 J55  0.5-  0.2+
080204 945  0.4+  0.3-    080224 233  0.1+  0.2+    080329 J55  0.2-  0.3+
080204 945  0.7+  0.4-    080224 233  0.3-  0.3-    080329 J55  0.1-  0.1-
080204 945  0.7+  0.4-    080224 A97  0.4+  0.6+    080329 A97  0.4+  0.0
080204 A77  0.8-  1.2+    080224 A41  0.5+  0.7+    080329 A06  0.3+  0.4-
080204 J70  0.7+  0.9+    080224 A97  0.3+  0.7+    080329 A97  0.6+  0.3+
080204 J70  0.8+  0.7+    080224 A97  0.2+  0.5+    080329 A06  0.6-  0.3+
080204 J70  0.6+  0.7+    080224 A97  0.2+  0.5+    080329 A06  0.8-  0.1+
080204 J70  0.4+  0.5+    080224 A41  0.5+  0.8+    080329 A97  0.3+  0.3+
080204 A77  0.3-  0.2-    080224 987  0.1-  1.0-    080329 J47  1.7+  0.8-
080204 J70  0.1-  1.1+    080224 987  1.3-  0.5-    080329 J47  0.4+  1.2+
080204 J70  0.5-  0.8+    080224 987  0.4-  0.5-    080329 213  0.2-  1.4+
080204 J70  0.5+  0.6+    080226 B16  1.3-  0.2-    080329 213  0.5-  1.0+
080204 213  0.5+  0.1-    080226 B16  1.0-  0.2-    080329 204  0.7-  0.0
080204 213  0.0   0.1-    080226 106  0.9+  0.1-    080329 A97  0.2+  0.1+
080204 213  0.3+  0.3+    080226 106  0.1+  0.5-    080329 J47  0.2+  0.0
080204 B20  0.1-  0.4-    080226 106  0.0   0.2+    080329 A97  0.6+  0.6-
080204 B20  0.2-  0.4-    080226 106  0.2-  0.1-    080330 J38  0.9+  0.0
080204 B20  0.2+  0.3+    080226 106  0.1+  0.4+    080330 J38  0.8+  0.6-
080205 118  1.3+  0.6-    080226 106  0.1-  0.6+    080330 J38  1.2+  0.4-
080205 A77  0.2-  0.9-    080226 106  0.1+  0.2+    080330 945  0.9+  1.2-
080205 118  0.7+  0.1-    080226 106  0.6+  0.1-    080331 C42  1.3+  0.6+
080205 235  0.0   0.5+    080226 106  0.4+  0.3-    080331 C42 (4.6+  2.5+)
080205 118 (1.5+  3.0-)   080226 585  0.1-  1.5-    080331 C42 (0.1+  2.2+)
080205 118  0.2+  1.1-    080226 585  1.6-  0.4+    080331 C42 (6.4+  6.0+)
080205 A77  0.2+  0.2-    080226 585 (0.7+  2.1+)   080331 C42 (5.1+  2.2+)
080205 595  0.4-  0.2+    080226 585  1.4+  0.2-    080331 C42 (2.2+  6.5+)
080205 A77  0.4-  0.1-    080226 585 (2.9-  0.0 )   080331 B02  0.2-  1.2+
080205 A77  0.1-  0.6-    080227 585  1.3-  0.4+    080331 152  0.5+  0.8+
080205 A77  0.1-  0.6-    080227 585  0.2-  0.3+    080331 B02  0.2-  0.1+
080205 595  0.2-  0.1+    080227 939  0.1-  0.2-    080331 152 (0.5+  2.6+)
080205 595  0.3-  0.1+    080227 939  0.1-  0.0     080331 152  0.7+  0.4+
080205 J38  0.8+  0.0     080227 939  0.3+  0.2+    080331 B02  0.2-  0.8-
080205 J38  0.8+  0.1+    080227 J76  0.3-  0.3-    080331 152  0.4+  0.2+
080205 J38  0.9+  0.2+    080227 J76  0.5-  0.5-    080331 152  0.1-  1.6+
080205 945 (2.6+  0.1-)   080227 J76  0.2-  0.5-    080331 152  1.0-  0.3+
080205 945  1.6+  1.1+    080228 673  0.9-  0.8-    080331 B02  0.3+  1.4-
080205 945  1.4+  1.1+    080228 673  0.7-  1.0-    080331 152  0.7+  0.8+
080205 945  1.8+  1.2+    080228 673  0.6-  0.8-    080331 J34  0.0   0.6+
080206 104  0.7+  0.4-    080228 673  0.7-  0.6-    080331 J79  0.2-  0.3+
080206 104  0.8+  0.3+    080228 900  0.1-  0.4-    080331 J79  0.8+  0.1-
080206 104  0.2+  0.5+    080228 900  0.6-  1.8+    080331 J79  0.3+  0.5-
080206 945 (2.3+  2.8+)   080228 585  0.1-  0.8-    080331 J34  0.1-  0.0
080206 945  0.9+  0.7-    080228 585  0.2-  1.2-    080401 300  0.8-  0.4-
080206 945  1.2+  0.2+    080228 585  0.5-  0.7-    080401 300  0.8+  0.1-
080206 945 (3.2+  0.1+)   080228 585  0.0   1.6-    080401 300  0.2-  0.3-
080207 673  0.7-  0.7-    080228 585  0.1-  1.2-    080401 300  0.7-  0.5-
080207 673  0.6-  0.4-    080228 585  0.3+  0.2+    080401 945  0.4+  1.9-
080207 673  0.3-  0.6-    080229 C42 (2.2+  7.8+)   080401 945  0.8+  1.3-
080207 673  0.1-  0.4-    080229 C42 (1.8-  2.2+)   080401 945  0.4-  0.4-
080207 379  0.2-  0.1+    080229 C42 (0.5-  5.1+)   080402 C42 (3.9+  1.5+)
080207 379  1.9-  0.6+    080229 C42  2.0+  0.3+    080402 C42 (0.9-  2.3+)
080207 379  0.0   0.1-    080301 C42 (3.6+  3.0+)   080402 J38  0.1-  1.3-
080207 215  0.2-  0.4+    080301 C42 (2.3+  1.1+)   080402 J38  0.8+  0.3+
080207 215  0.1-  0.2+    080301 C42 (2.1-  1.7-)   080402 J38  1.4+  0.4+
080207 215  0.1-  0.2+    080302 213  0.0   0.1-    080403 900  1.0-  0.5-
080207 106  0.3+  0.1+    080302 213  0.2-  0.2-    080403 900  0.4+  0.2-
080207 106  0.0   1.3+    080302 458  0.0   0.9-    080403 213  0.5-  0.4-
080207 106  0.2+  1.3+    080302 458  0.4+  0.1-    080403 213  1.1-  0.2-
080207 106  0.9+  1.3+    080302 213  0.7-  1.0-    080403 213  1.1-  0.2-
080207 224  0.2+  0.5+    080302 939  0.0   0.0     080403 J30 (8.5+  0.7+)
080207 224  0.3+  0.5+    080302 939  0.2-  0.2-    080403 J30 (3.8+  4.3+)
080207 235  0.3+  0.3+    080302 939  0.3-  0.4-    080403 J30  0.7-  0.3-
080207 224  0.0   0.2+    080302 J46  0.7-  0.7-    080403 J38  0.3+  0.5-
080207 B50  1.7-  1.9+    080302 J46  0.4+  0.5-    080403 J38  1.3+  0.4+
080207 A77  0.1-  1.2-    080302 J46  0.5+  0.6+    080404 372  0.9-  0.2-
080207 939  0.1-  0.6+    080303 C42 (0.3+  3.7-)   080404 C42 (5.8-  6.6-)
080207 A77  0.1-  0.2-    080303 C42 (0.8-  2.8+)   080404 C42 (3.7-  0.0 )
080207 939  0.1+  0.2+    080303 510  0.3-  0.6-    080404 C42 (8.7+  0.8+)
080207 939  0.1+  0.2-    080303 510  0.7-  0.7-    080404 235 (0.6+  2.5+)
080207 130  1.1+  0.1-    080303 510  0.7-  0.6-    080404 A77  0.5-  0.8+
080207 A77  0.8+  0.3+    080305 900  0.4-  1.4-    080404 A77  0.9-  0.3+
080207 130  0.1+  0.9+    080305 900  1.3+  1.1+    080404 A77  0.6-  0.5+
080207 213  0.3-  0.2+    080305 C42 (2.6+  0.9-)   080404 147  1.3+  0.4+
080207 213  0.0   0.3+    080305 C42 (7.5-  0.5+)   080404 147  0.4+  0.4+
080207 213  0.3-  0.2+    080305 C42 (5.6-  7.7-)   080404 147  1.0+  0.1-
080207 130  0.6-  0.9+    080305 118  0.4-  0.5-    080405 H06  0.5-  0.5+
080207 130  1.4-  0.4+    080305 118  0.4-  0.3-    080405 349  0.2+  0.2+
080207 B48  0.6+  0.2+    080305 118  0.5-  0.7-    080405 349  0.0   0.7+
080207 B48  0.1-  0.2-    080305 A97  0.9+  0.5+    080405 349  0.2-  0.6+
080207 B48  0.4-  0.1+    080305 118  0.4-  0.5-    080405 939  0.6+  0.1+
080207 B48  0.2-  0.1+    080305 A97  0.6-  0.5-    080405 939  0.0   0.0
080207 B48  1.4+  0.5-    080305 A97  0.4+  0.1+    080405 939  0.2-  0.2-
080207 B48  0.1-  0.2-    080305 A97  0.1+  0.2+    080405 945  1.3+  0.9+
080207 510  0.1-  0.2+    080305 A97  0.1+  0.3-    080405 945  1.0-  0.4-
080207 510  0.4-  0.1-    080305 B30  0.1-  0.8-    080405 945  1.6+  1.0+
080207 510  0.2+  0.1-    080305 B30  0.5-  0.5-    080405 232  0.6-  0.3-
080208 372  0.8-  0.2-    080305 B30  0.9-  0.9-    080405 945  1.4+  1.1+
080208 372  0.3+  0.4+    080305 510  0.9-  0.8-    080405 232  0.6-  0.2+
080208 372  0.6+  0.4+    080305 510  0.0   0.3+    080405 945  0.0   0.0
080208 C42 (6.5+ 11.3+)   080305 510  0.6-  0.4-    080405 232  0.1+  0.5+
080208 C42 (0.4-  9.5+)   080305 J38  0.9+  1.0-    080405 442  1.3+  1.0+
080208 C42 (0.5-  5.3+)   080305 J38  0.7+  0.7-    080405 J38  0.6+  0.6-
080208 C42 (2.6-  3.9-)   080305 J38  0.1+  0.4-    080405 J38  0.9+  0.3-
080208 048  1.9-  0.1-    080305 945  0.1-  1.3-    080405 J38  0.3+  0.1+
080208 048  1.0-  0.0     080305 945  0.1+  0.3+    080406 J29  1.0+  0.2-
080208 048  0.7-  0.7-    080305 945  0.5+  0.2-    080406 J47  0.0   0.2-
080208 048  1.0-  0.4-    080305 945  0.8+  1.2-    080406 J47  0.5+  0.7-
080208 048  1.1-  0.2-    080305 945  1.5+  0.1+    080406 J29  0.6+  0.0
080208 349  0.5-  0.2-    080306 J38  0.2+  0.7-    080406 J47  0.0   0.4+
080208 349  1.2-  0.8-    080306 J38  0.5+  0.5-    080406 J29  0.3+  0.3-
080208 204  0.4-  0.0     080306 J38  0.4+  1.0-    080407 A97  0.7+  1.3+
080208 J96  1.0-  1.0+    080306 585 (2.3-  0.1-)   080407 A97  1.3+  1.2+
080208 J38  0.6+  0.1-    080306 585  2.0-  0.3-    080407 A97  0.9+  0.5+
080208 J96  0.2+  0.4+    080306 585  0.5-  0.4-    080407 215  0.1+  0.1+
080208 J38  0.6+  0.5-    080306 945  0.9-  1.1+    080407 215  0.2-  0.1-
080208 J38  0.4+  1.4-    080306 945  0.1+  1.2-    080407 215  0.0   0.2+
080208 B50  0.0   0.7-    080306 945  1.2-  0.4-    080407 J47  0.7+  0.3+
080208 B50  0.0   0.1+    080306 585  0.7+  0.8-    080407 J47  0.0   0.1-
080208 J96  1.1+  0.5+    080306 945 (2.9+  2.4-)   080407 J47  0.2-  0.0
080208 204  0.4-  0.4-    080306 945 (0.1-  4.4-)   080409 585  0.6-  0.2-
080209 B58  0.2-  0.0     080306 585  1.2-  1.1-    080409 585  0.8+  0.9-
080209 B58  0.4-  0.1+    080306 585  0.2+  0.8-    080409 585  1.8-  1.4+
080209 B58  0.6-  0.2-    080307 A77  0.2-  0.3-    080409 585  1.2-  1.1+
080209 B58  0.1-  0.1+    080307 A77  0.4-  0.3-    080409 585  0.4-  1.3-
080209 B58  0.8-  0.1-    080307 939  0.5+  0.3+    080409 585  1.2-  1.4-
080209 B58  0.5+  0.2+    080307 939  0.1-  0.4+    080412 J29 (4.3+  1.4-)
080209 B58  0.1-  0.7+    080307 939  0.4-  0.2+    080412 J29  0.8+  0.1+
080209 B58  0.2-  0.2-    080308 367  1.0+  0.8+    080412 J29  1.3+  0.5-
080209 B58  0.1-  0.0     080308 367  0.8+  0.3-    080413 B20  0.0   0.5-
080209 B58  0.3-  0.0     080308 367  0.0   0.7+    080413 B20  0.1-  0.5-
080209 106  0.3+  0.6+    080308 349  0.4+  0.3-    080413 B20  0.2-  0.1+
080209 106  0.0   0.4+    080308 349  0.4+  0.4-    080413 A06  0.6-  0.3+
080209 106  0.1-  0.4+    080308 349  0.6+  0.5-    080413 A06  0.1+  0.3-
080209 106  0.5-  0.1-    080308 J76  0.1+  0.0     080413 A06  0.2-  0.0

